Wind_Speed
55 55 54 54 54 54 53 53 53 53 52 51 51 50 49 48 47 47 46 45 45 45 45 45 45 45 45 45 45 45 45 45 44 44 43 43 43 43
56 56 56 55 55 55 54 54 53 53 53 52 52 52 51 50 49 49 48 48 47 47 46 45 45 46 46 46 46 46 46 46 46 46 44 44 44 45
56 57 56 56 56 56 55 55 54 54 53 53 53 53 53 52 51 51 50 49 48 48 47 47 47 46 47 47 47 46 46 47 47 47 46 46 46 47
56 56 56 56 56 56 56 56 55 55 54 53 54 53 53 53 53 52 52 51 50 49 48 48 48 48 47 47 47 46 46 46 47 47 46 46 46 47
55 55 55 55 55 55 56 56 56 56 56 55 55 54 54 54 54 53 53 52 51 50 49 49 49 48 48 48 48 48 47 47 47 47 47 47 47 48
54 54 54 53 53 53 54 55 56 56 56 56 56 55 54 54 54 53 53 52 52 51 50 50 50 49 49 49 49 48 48 48 48 48 48 48 48 48
52 53 53 53 53 54 54 54 56 56 56 56 56 56 55 54 54 53 53 53 52 52 52 52 52 51 51 50 49 48 48 48 49 49 50 50 49 49
52 51 52 53 53 53 54 54 55 55 55 55 55 55 54 54 53 53 53 53 53 53 53 52 52 52 50 50 49 49 49 49 50 50 50 51 51 51
51 51 51 51 52 52 53 54 54 54 54 54 54 55 55 54 54 53 53 53 53 53 53 52 52 51 51 50 50 50 50 51 51 51 51 51 52 52
50 51 51 50 50 51 52 53 53 53 53 53 54 54 54 53 53 53 53 54 54 54 53 52 52 51 51 50 51 51 51 51 51 52 52 51 51 51
49 50 50 49 49 50 50 50 51 52 53 53 53 53 53 53 53 53 52 53 53 53 52 52 51 51 50 50 50 51 51 51 51 51 51 51 51 52
47 47 48 49 49 49 49 49 48 49 50 51 52 52 52 52 52 52 52 52 51 51 50 50 50 51 50 50 50 50 50 51 51 51 52 52 52 52
44 45 46 47 48 48 48 48 48 48 49 50 51 51 51 51 51 51 50 50 49 48 48 49 49 50 50 50 50 50 50 50 51 51 51 52 52 52
42 43 44 45 47 47 48 48 47 47 48 49 50 50 50 50 50 49 49 49 48 48 48 48 48 49 49 49 49 49 50 50 50 50 50 50 50 50
41 42 43 43 45 46 47 47 47 46 47 47 47 48 49 49 49 48 48 48 48 48 48 47 47 48 48 48 48 48 48 49 49 49 49 49 49 48
41 41 42 43 44 44 45 46 46 46 45 45 46 47 47 47 47 47 47 47 47 47 47 47 47 46 46 46 46 47 47 47 48 48 47 47 47 47
40 40 41 41 42 42 43 44 44 45 45 45 45 44 45 45 45 45 45 44 45 45 44 45 46 46 45 45 45 45 46 46 46 47 46 46 46 47
38 38 39 39 40 40 40 41 41 42 42 42 43 43 43 42 42 42 42 43 43 43 43 43 44 44 44 43 44 44 44 44 45 45 45 45 45 45
36 36 37 37 38 38 39 39 39 40 41 41 41 41 41 41 41 42 42 41 41 41 42 42 43 43 43 42 42 42 42 42 42 42 43 42 42 43
34 34 35 36 36 36 37 37 38 38 39 40 41 41 41 41 41 41 40 40 40 40 40 40 41 41 41 41 41 41 41 40 40 40 40 40 41 41
33 32 33 34 35 35 35 36 36 37 38 39 39 39 39 39 39 39 39 39 39 39 39 39 39 39 39 39 39 39 39 39 39 39 39 39 39 39
32 32 32 32 33 33 34 34 34 35 36 37 37 38 38 38 38 38 38 37 38 38 37 38 38 38 37 38 38 39 39 38 38 38 38 38 38 37
32 32 32 32 32 32 32 32 32 32 34 35 35 36 36 37 37 37 36 36 36 36 37 36 36 36 36 36 37 37 37 37 37 37 36 36 36 35
Wind_Direction
253 252 252 251 252 251 251 251 250 249 248 248 248 249 250 251 252 253 253 255 256 258 260 261 262 264 264 265 266 266 267 268 268 269 270 271 272 273
252 252 251 251 252 251 251 250 250 250 249 248 248 249 250 251 252 253 253 255 257 258 260 261 263 264 265 266 266 267 267 267 268 268 270 271 271 272
251 251 250 250 250 249 250 250 250 250 250 249 249 249 249 250 252 252 253 255 256 257 259 261 262 264 265 266 266 267 268 268 267 267 269 270 271 272
250 250 250 250 249 249 249 249 249 249 249 250 249 249 249 250 251 252 254 255 256 257 258 260 262 264 265 266 266 267 267 267 267 268 269 270 271 273
249 249 249 249 249 249 248 248 248 248 249 249 249 249 249 250 251 252 253 254 256 257 259 260 262 264 265 266 267 267 267 267 267 268 269 270 272 273
249 249 249 248 248 248 248 248 248 248 249 249 249 249 250 251 251 252 253 254 256 257 258 260 262 264 265 266 267 267 267 267 267 268 269 270 272 272
248 248 248 247 248 248 248 248 248 248 249 249 249 250 251 251 252 252 253 254 255 257 259 261 262 264 265 265 265 266 266 266 267 268 269 270 272 273
247 248 248 247 247 248 249 248 248 248 248 249 249 250 251 251 252 252 253 254 256 257 259 260 262 264 264 264 265 266 266 267 268 269 270 271 271 272
247 247 247 247 247 248 248 248 248 248 248 249 249 250 250 251 251 252 252 254 256 257 258 260 262 263 263 264 265 266 267 268 269 269 270 271 271 272
248 248 248 247 247 248 248 248 248 247 247 249 250 251 251 251 251 252 253 253 255 257 258 260 261 262 263 264 265 266 267 267 268 269 269 270 271 272
249 248 247 247 247 248 248 248 248 248 248 248 250 250 250 251 252 252 253 254 255 256 258 259 260 262 263 264 265 266 266 266 268 269 270 271 272 273
248 247 246 246 246 247 248 248 248 248 248 248 249 249 249 250 251 252 253 255 256 257 257 259 260 261 263 264 265 265 266 267 268 269 270 272 273 274
246 246 246 245 245 245 246 247 247 248 248 248 249 250 250 250 250 251 253 255 256 257 257 259 261 262 263 264 265 265 266 267 268 269 271 272 274 275
246 245 246 245 244 244 245 246 247 248 248 249 249 249 249 250 251 252 253 255 255 257 258 259 262 262 263 264 264 265 266 268 269 270 271 273 274 276
247 246 245 245 244 243 245 246 246 247 248 248 248 249 250 251 251 253 253 254 256 257 258 259 261 262 262 263 265 266 267 268 269 270 271 273 274 276
246 245 245 244 242 242 243 244 245 247 248 248 248 250 251 252 252 253 253 255 256 257 258 258 260 261 263 263 264 266 267 268 269 270 271 273 274 275
245 244 245 243 242 242 243 243 244 245 247 247 248 250 250 251 252 252 253 253 255 256 258 259 260 261 262 264 265 267 268 268 270 271 271 272 273 275
244 243 242 241 242 242 242 242 244 245 245 246 247 248 249 249 250 250 250 252 254 255 258 259 260 260 262 263 265 267 268 268 269 270 271 273 275 276
241 241 240 238 239 240 242 243 243 244 245 246 246 246 247 248 249 249 250 252 255 256 258 259 259 260 261 263 264 266 267 269 269 270 272 274 276 277
239 239 238 238 238 238 240 242 243 243 244 245 245 246 247 247 249 249 249 252 255 256 258 259 260 260 261 262 264 266 267 268 269 271 272 274 275 277
237 237 237 237 237 238 240 241 242 243 244 245 245 245 246 248 249 248 250 252 254 256 257 259 261 261 261 262 263 265 267 268 269 270 272 273 274 276
235 236 236 236 237 238 239 240 242 243 243 244 245 245 246 247 247 248 250 253 254 254 257 258 259 260 261 263 264 265 267 268 268 270 271 273 274 276
234 235 236 237 238 239 240 241 243 244 244 244 244 244 244 245 247 248 249 251 253 254 256 257 259 260 262 263 265 266 266 267 268 270 271 272 274 275
Height
5651 5654 5658 5661 5664 5667 5671 5674 5677 5681 5686 5689 5693 5696 5699 5702 5706 5708 5711 5714 5716 5718 5719 5721 5722 5724 5724 5725 5726 5726 5727 5727 5727 5727 5727 5727 5727 5726
5636 5639 5643 5646 5650 5653 5657 5660 5663 5667 5672 5677 5680 5683 5686 5690 5693 5696 5699 5702 5704 5706 5708 5710 5711 5712 5713 5714 5714 5715 5715 5716 5716 5716 5716 5716 5716 5716
5620 5624 5628 5631 5635 5639 5643 5646 5650 5653 5658 5663 5666 5670 5674 5677 5680 5683 5686 5689 5692 5694 5696 5698 5699 5700 5701 5702 5703 5703 5704 5704 5705 5705 5705 5705 5705 5705
5605 5608 5612 5616 5620 5624 5628 5632 5636 5640 5644 5648 5652 5656 5660 5664 5667 5670 5673 5676 5679 5681 5683 5685 5687 5688 5689 5690 5690 5691 5692 5692 5693 5693 5694 5694 5693 5692
5589 5593 5597 5601 5605 5609 5613 5617 5621 5626 5630 5634 5638 5642 5646 5650 5653 5657 5660 5663 5666 5668 5670 5672 5674 5675 5676 5677 5678 5679 5679 5680 5681 5681 5681 5681 5681 5680
5575 5579 5583 5587 5591 5595 5599 5603 5607 5611 5615 5619 5624 5628 5632 5636 5639 5643 5646 5649 5653 5655 5657 5659 5661 5662 5664 5665 5666 5666 5666 5667 5668 5668 5669 5668 5668 5667
5561 5565 5569 5573 5577 5581 5585 5589 5592 5596 5600 5605 5609 5614 5618 5621 5625 5629 5632 5636 5639 5641 5644 5646 5648 5649 5650 5651 5652 5652 5653 5654 5655 5655 5655 5655 5654 5654
5548 5551 5555 5559 5563 5566 5570 5574 5578 5582 5586 5590 5595 5599 5604 5608 5611 5614 5618 5622 5626 5629 5630 5632 5633 5635 5636 5637 5638 5639 5640 5640 5641 5641 5641 5641 5640 5640
5534 5537 5541 5545 5549 5552 5556 5559 5564 5568 5572 5576 5581 5585 5589 5594 5598 5601 5604 5607 5611 5614 5615 5618 5619 5621 5622 5623 5624 5625 5626 5626 5627 5627 5627 5626 5626 5626
5520 5523 5527 5531 5535 5538 5542 5545 5549 5554 5558 5562 5567 5572 5575 5578 5582 5586 5589 5593 5596 5598 5601 5604 5605 5607 5608 5609 5610 5610 5611 5612 5612 5612 5612 5612 5611 5611
5506 5509 5513 5517 5521 5525 5528 5532 5536 5540 5543 5547 5552 5556 5560 5564 5568 5571 5574 5578 5581 5584 5586 5589 5591 5593 5594 5595 5595 5596 5597 5597 5598 5598 5597 5597 5597 5596
5493 5496 5500 5504 5507 5510 5514 5518 5522 5526 5530 5533 5537 5541 5545 5549 5553 5556 5560 5563 5567 5570 5572 5575 5577 5578 5580 5581 5581 5582 5582 5583 5583 5583 5583 5582 5582 5581
5480 5483 5487 5490 5494 5498 5501 5505 5509 5513 5516 5520 5523 5527 5531 5535 5539 5543 5546 5550 5553 5556 5559 5561 5563 5564 5566 5568 5568 5568 5568 5568 5568 5568 5568 5568 5567 5566
5467 5471 5474 5477 5481 5485 5489 5493 5496 5499 5503 5506 5510 5514 5518 5522 5526 5529 5533 5536 5539 5542 5545 5547 5549 5550 5552 5553 5554 5554 5554 5554 5554 5554 5553 5553 5552 5551
5455 5458 5461 5464 5468 5473 5476 5480 5483 5487 5490 5494 5498 5502 5505 5509 5512 5516 5519 5522 5526 5528 5531 5533 5535 5536 5538 5539 5540 5540 5540 5540 5540 5540 5539 5539 5538 5537
5443 5446 5449 5452 5456 5460 5464 5468 5471 5475 5479 5483 5486 5489 5493 5496 5500 5503 5506 5510 5513 5515 5517 5519 5521 5523 5524 5525 5526 5526 5526 5527 5526 5526 5525 5525 5524 5523
5431 5435 5438 5441 5445 5448 5452 5456 5460 5464 5468 5471 5475 5478 5481 5484 5488 5491 5494 5497 5500 5502 5504 5506 5507 5509 5511 5512 5512 5513 5513 5513 5513 5512 5512 5511 5510 5510
5420 5423 5427 5430 5434 5438 5442 5446 5450 5453 5457 5460 5463 5467 5470 5473 5477 5480 5482 5485 5488 5490 5492 5493 5495 5497 5498 5499 5499 5500 5500 5500 5499 5499 5498 5498 5497 5496
5410 5413 5417 5421 5424 5428 5432 5435 5439 5443 5446 5449 5453 5456 5459 5462 5465 5468 5471 5474 5476 5478 5480 5481 5483 5484 5486 5487 5487 5487 5487 5487 5486 5486 5486 5485 5485 5484
5400 5404 5407 5411 5415 5419 5422 5426 5429 5432 5436 5439 5442 5445 5448 5451 5454 5457 5460 5463 5465 5467 5468 5469 5471 5472 5474 5475 5475 5475 5475 5475 5475 5474 5474 5473 5472 5471
5392 5395 5399 5402 5406 5409 5413 5416 5419 5422 5425 5429 5432 5435 5438 5441 5444 5446 5449 5452 5453 5455 5457 5458 5459 5461 5461 5462 5463 5463 5463 5463 5463 5463 5462 5462 5461 5460
5384 5387 5391 5394 5397 5401 5404 5407 5410 5413 5416 5418 5421 5424 5427 5430 5433 5436 5438 5441 5443 5444 5446 5447 5448 5449 5450 5451 5452 5452 5452 5452 5451 5451 5451 5450 5449 5449
5376 5379 5383 5386 5389 5392 5395 5398 5401 5404 5406 5409 5412 5415 5417 5420 5423 5426 5428 5430 5432 5434 5435 5436 5437 5438 5439 5440 5441 5441 5441 5441 5440 5440 5440 5439 5438 5438